Location: Baumgartsau
(48.4586°N, 14.0864°E)
Time: 05:53:54
(UTC+00:00)

USA 32 - Pass Details

Date: 09 April 2020
Orbit: 777 x 783 km, 85.0° (Epoch: 22 April)

Event Time Altitude Azimuth Distance (km) Brightness Sun altitude
Rises 20:17:45 0° 354° (N) 3,274 8.0 -22.7°
Reaches altitude 10° 20:20:07 10° 355° (N) 2,341 7.2 -22.9°
Maximum altitude 20:25:24 85° 85° (E) 788 3.9 -23.6°
Enters shadow 20:26:23 60° 166° (SSE) 890 4.0 -23.7°
